This is the latest recevied weather packets stored in our database for station/object WH6VH. If no packets are shown the sender has not sent any weather packets the latest 10 day(s).
| Time | Temp. | Humidity | Pressure | Rain* | Wind** | Luminosity | Snow |
|---|---|---|---|---|---|---|---|
| 1777567805 | 4.44° C | 81% | 1022.5 hPa | 0 mm | - | - | - |
| 1777566905 | 4.44° C | 81% | 1022.3 hPa | 0 mm | - | - | - |
| 1777566005 | 4.44° C | 80% | 1022.2 hPa | 0 mm | - | - | - |
| 1777564804 | 4.44° C | 78% | 1022.2 hPa | 0 mm | - | - | - |
| 1777561805 | 5° C | 75% | 1022 hPa | 0 mm | - | - | - |
| 1777561204 | 5° C | 75% | 1021.9 hPa | 0 mm | - | - | - |
| 1777560005 | 4.44° C | 76% | 1021.7 hPa | 0 mm | - | - | - |
| 1777559704 | 4.44° C | 78% | 1021.7 hPa | 0 mm | - | - | - |
| 1777555805 | 3.89° C | 92% | 1021.5 hPa | 0 mm | - | - | - |
| 1777555204 | 3.89° C | 92% | 1021.5 hPa | 0 mm | - | - | - |
| 1777554305 | 3.89° C | 92% | 1021.3 hPa | 0 mm | - | - | - |
| 1777552805 | 3.89° C | 92% | 1021.2 hPa | 0.25 mm | - | - | - |
| 1777549805 | 3.89° C | 92% | 1021 hPa | 0.25 mm | - | - | - |
| 1777549505 | 3.89° C | 92% | 1021 hPa | 0.25 mm | - | - | - |
| 1777546505 | 4.44° C | 91% | 1021 hPa | 0.25 mm | - | - | - |
| 1777544405 | 4.44° C | 90% | 1021.1 hPa | 0.25 mm | - | - | - |
| 1777543805 | 4.44° C | 90% | 1021.1 hPa | 0.51 mm | - | - | - |
| 1777541105 | 5° C | 89% | 1021 hPa | 0.51 mm | - | - | - |
| 1777540505 | 5° C | 89% | 1021 hPa | 0.51 mm | - | - | - |
| 1777539304 | 5° C | 89% | 1020.9 hPa | 0.51 mm | - | - | - |
| 1777536605 | 5.56° C | 89% | 1021 hPa | 0 mm | - | - | - |
| 1777536004 | 5.56° C | 89% | 1021 hPa | 0 mm | - | - | - |
| 1777535704 | 5.56° C | 89% | 1021 hPa | 0 mm | - | - | - |
| 1777534505 | 5.56° C | 88% | 1021.1 hPa | 0 mm | - | - | - |
| 1777529406 | 5.56° C | 85% | 1021.6 hPa | 1.27 mm | - | - | - |
* Rain latest hour (hover to see other rain measurements)
** Current wind speed in m/s (hover to see current wind gust speed)